Location: *
(47.8307°S, 178.3954°E)
Time: 08:42:52
(UTC+00:00)

USA 215 - Pass Details

Date: 12 August 2024
Orbit: 1099 x 1108 km, 123.0° (Epoch: 16 September)

Event Time Altitude Azimuth Distance (km) Brightness Sun altitude
Rises 18:20:17 0° 126° (SE) 3,957 6.9 -9.3°
Reaches altitude 10° 18:22:47 10° 127° (SE) 2,995 6.2 -8.9°
Maximum altitude 18:29:24 76° 210° (SSW) 1,148 3.3 -7.8°
Drops below altitude 10° 18:35:57 10° 294° (WNW) 2,972 5.1 -6.8°
Sets 18:38:26 0° 296° (WNW) 3,925 5.7 -6.4°
